Showing default

LEMUR 2 MANO, 57390

Orbit data source: Space-Track

LEMUR 2 MANO, 57390 is a payload satellite owned by Spire (US) in LEO that was launched on Tue, 18 Jul 2023 UTC via an ELECTRON launch vehicle from the Rocket Lab Launch Complex (RLLC). Payload-class satellites include a variety of spacecraft equipped with specific instruments for various scientific and technological missions. These include communications satellites like Starlink; space stations such as the ISS; scientific satellites like the Hubble; Earth observation satellites from companies like Planet Labs, Umbra, and HawkEye 360; GPS; miniature CubeSats for education and research; and military/defense satellites.

Not visible in the next 10 days
Identifier
57390, 2023-100E
Orbit
LEO
Country
Flag of USUS
Related business
Manufacturer
Spire/Glasgow
Mission
Decayed Commercial Com/MetRO
Bus & Motor
CUBESAT 3U, Unknown motor
Mass
5 kg wet, 5 kg dry
Launch date (UTC)
2023-07-18 (3 years ago)
Launch vehicle
ELECTRON
Launch site
Rocket Lab Launch Complex (RLLC)
Object type
Payload
Rocket body
Debris
Shape & HBR
Box + 2 Pan, 1.0 m
Radar Cross Section
0.054 m², Medium (>0.1 m² and < 1m²)

Expand to show TLE details & history
Last TLE update: 2 weeks ago

TLE from 2 weeks ago
0 LEMUR 2 MANO
1 57390U 23100E   26145.20034711  .05189989  37333-5  11615-2 0  9995
2 57390  99.4501 195.7338 0031481 223.1703 136.7115 16.28673702158555
Epoch: 2026-05-25T04:48Z
TLE epoch observation values (Epoch: 2026-05-25T04:48:29.990Z)
Latitude
-0.00005°
Longitude
-119.1827°
Altitude
214.372 km
Speed
7.769 km/s
True Right ascension
13h 02m 56s
True Declination
0° 00' 00"
Sunlit
Object was in full shadow at epoch
Visualization orbit readout
Latitude
Unknown
Longitude
Unknown
Altitude
Unknown
Speed
Unknown
Apparent Right ascension
Unknown
Apparent Declination
Unknown
Sunlit
N/A
Visualization observer readout
Local Sidereal Time
12:48:57
Azimuth
Unknown
Elevation
Unknown
Doppler factor
Unknown
Orbital elements
Apogee altitude
213.72 km
Perigee altitude
172.346 km
Semi-major axis
6,571.17 km
Eccentricity
0.00315
Inclination
99.4501°
RAAN
195.7338°
Arg. of periapsis
223.1703°
True anomaly
136.95815°
Mean anomaly
136.7115°
Eccentric anomaly
136.83489°
Mean motion
4.07455 °/min
Orbital period
88.35 mins
BSTAR
0.0011615
Loading maneuver chart data...
Computing Atmospheric mass density...
Loading historical data...
Loading historical data...
Loading historical data...
Loading historical data...
Loading historical data...
Loading historical data...
Loading historical data...

Documentation

Showing up to 5 results
|